Location: Stoke Bliss
(52.2667°N, 2.5167°W)
Time: 20:20:49
(UTC+00:00)

Cosmos 2322 Rocket - Pass Details

Date: 03 March 2021
Orbit: 832 x 852 km, 71.0° (Epoch: 15 April)

Event Time Altitude Azimuth Distance (km) Brightness Sun altitude
Rises 19:07:19 0° 203° (SSW) 3,365 5.6 -12.1°
Reaches altitude 10° 19:09:45 10° 202° (SSW) 2,436 4.8 -12.5°
Maximum altitude 19:15:19 77° 118° (ESE) 860 2.1 -13.3°
Drops below altitude 10° 19:20:57 10° 33° (NNE) 2,459 4.4 -14.2°
Sets 19:23:24 0° 32° (NNE) 3,400 5.1 -14.5°
